CW8262 Weather Reports


time (UTC)temp
F
wind
direction
speed
knots
gust
knots
rain 1hr
in
rain 24hr
in
rain mn
in
humidity
%
barometer
mb
20220525135208 40 90 0.0 0.9 0.00 4.37 0.11 85 1016.7
20220525130708 42 135 0.9 0.9 0.00 4.87 0.11 84 1016.7
20220525104211 44 45 0.0 0.0 0.00 4.98 0.11 84 1017.3
20220525103211 45 338 0.9 1.7 0.00 5.04 0.11 84 1017.3
20220525101208 46 112 0.9 1.7 0.00 5.09 0.11 84 1017.5
20220525095217 47 172 0.0 0.9 0.00 5.09 0.11 83 1017.4
20220525093208 47 180 0.0 0.0 0.00 5.09 0.11 83 1017.4
20220525092208 48 191 0.9 1.7 0.00 5.09 0.11 83 1017.1
20220525080709 51 151 0.9 4.3 0.00 5.09 0.11 83 1016.8
20220525063709 51 261 1.7 4.3 0.00 5.09 0.11 80 1016.4
20220525040605 56 233 5.2 10.4 0.00 5.09 0.11 75 1015.4
20220525032209 56 202 4.3 7.8 0.00 5.09 0.11 78 1014.9
20220525022711 56 234 7.0 11.3 0.00 5.09 0.11 78 1015.0
20220525010210 59 254 7.8 13.0 0.00 5.09 0.11 80 1014.8
20220524230709 52 4 2.6 4.3 0.00 5.09 0.11 73 1015.9
20220524214216 44 44 0.0 1.7 0.00 5.09 0.11 75 1015.5
20220524190208 42 78 0.0 1.7 0.00 5.09 0.11 77 1014.7
20220524182009 42 96 0.0 0.9 0.00 5.09 0.11 78 1014.8
20220524181110 42 174 0.0 0.9 0.00 5.09 0.11 78 1014.7
20220524171709 43 132 0.0 0.0 0.00 5.09 0.11 78 1014.8
20220524164711 44 98 0.0 0.9 0.00 5.09 0.11 77 1014.8
20220524160208 45 113 0.0 0.0 0.00 5.09 0.11 79 1015.2
20220524142710 48 19 0.9 1.7 0.00 5.65 0.11 77 1015.1
20220524141708 48 313 0.9 1.7 0.00 5.70 0.11 77 1015.2